Theta_e
353 351 350 350 351 352 352 350 350 351 354 352 351 349 350 349 350 352 350 349 348 347 350 351 349 349 349 347 347 347 348 348 347 348 348 348 348 354 358 358 358 357 357 358 357 358 358 358 357 358 357 357 357 357 357 356 356 356 356 356 356 355 354 354 353 353 353 352 352 353 353 353 353 353 353 353 353 354 353 353 353 354 354 354 353
352 351 351 350 351 353 353 351 351 352 354 349 351 350 350 350 351 351 352 350 348 348 352 347 349 349 347 347 347 348 348 348 348 349 348 348 348 354 359 358 358 358 358 358 358 358 358 358 358 357 357 357 357 357 357 357 357 357 356 356 355 355 354 354 354 354 353 353 353 353 353 353 354 353 353 354 353 352 353 354 354 353 353 353 353
353 351 350 350 350 351 350 350 350 350 353 352 353 354 351 351 353 351 350 349 350 348 353 346 346 348 349 347 347 348 348 349 349 350 350 349 348 351 357 359 359 358 358 358 358 358 359 359 359 358 358 357 357 357 356 355 356 356 356 355 355 355 354 354 354 354 354 353 354 354 353 353 354 353 354 353 353 354 353 354 354 353 354 353 353
353 351 351 349 348 349 349 349 349 349 352 352 353 354 355 354 356 354 353 352 352 351 352 349 344 346 348 347 348 348 348 349 349 350 351 349 348 350 351 356 359 359 358 358 358 358 358 358 358 358 358 357 357 356 357 356 356 356 356 355 355 355 355 355 355 355 354 354 355 354 355 355 354 354 354 354 354 354 354 354 353 354 353 353 353
353 352 357 349 348 348 347 351 350 350 352 354 356 355 355 354 352 356 353 351 349 347 354 347 343 344 347 347 348 348 349 349 349 350 351 351 350 350 351 352 353 359 359 358 358 358 358 358 358 358 358 358 358 357 357 356 356 356 356 355 355 355 355 355 355 355 355 355 356 355 355 355 354 354 354 354 354 353 354 354 354 353 353 352 352
353 351 353 349 348 347 347 348 350 352 354 356 354 353 351 351 352 348 359 351 348 347 347 342 342 343 346 347 348 348 348 349 349 350 351 352 352 352 352 352 352 352 355 359 359 359 358 358 358 358 358 358 358 358 358 358 357 356 356 356 355 355 356 355 355 355 356 356 356 356 355 356 356 355 355 354 354 354 354 354 353 353 353 352 352
354 351 351 348 347 347 348 349 351 353 355 356 352 354 351 351 353 348 348 349 346 350 347 343 340 342 344 347 347 348 348 348 349 349 350 350 351 352 353 353 352 352 355 353 361 360 360 359 359 359 359 359 359 359 358 358 357 357 356 356 357 357 357 356 356 356 356 357 357 356 356 356 355 355 355 355 354 355 354 354 353 353 352 352 351
353 352 350 348 347 347 348 350 352 354 355 355 354 351 351 352 355 350 347 347 350 344 345 339 339 341 343 345 345 350 346 347 347 348 350 350 351 351 352 353 353 352 358 353 352 357 360 360 360 360 360 360 359 360 360 359 358 358 358 358 359 358 358 358 358 358 357 358 357 357 357 357 357 356 356 356 356 355 354 354 354 353 352 352 352
355 354 351 349 349 350 351 353 356 355 353 353 355 357 353 357 351 358 349 345 345 346 342 340 340 341 343 344 344 349 346 346 347 347 351 349 349 350 351 352 354 361 356 355 353 353 357 360 361 361 361 361 361 360 360 361 361 360 360 360 360 360 360 359 358 358 358 358 358 358 358 357 357 357 356 356 356 355 354 354 353 353 352 352 351
356 354 351 352 351 352 353 355 357 355 353 352 350 354 352 350 350 352 352 347 345 343 341 341 342 341 342 343 343 346 345 345 347 354 347 347 348 349 350 351 353 354 356 355 355 354 354 357 360 361 362 361 361 361 361 361 361 361 361 361 360 360 360 359 358 358 358 358 358 358 357 357 357 357 356 357 356 356 355 354 354 353 353 352 351
357 356 353 356 354 354 355 355 356 353 351 350 350 356 357 351 351 349 353 348 346 345 344 340 342 342 341 342 343 344 344 344 350 350 347 348 349 351 350 350 351 352 353 354 354 353 353 353 352 354 356 360 362 362 362 362 362 362 362 362 361 360 360 359 359 359 359 358 358 358 357 357 357 357 357 356 355 355 355 354 354 353 352 352 351
357 357 356 357 354 355 355 355 354 351 349 348 348 349 351 350 351 352 347 348 350 350 343 344 340 339 345 339 341 342 342 346 347 347 349 347 348 352 349 350 350 350 352 353 354 353 353 352 354 352 353 356 359 360 362 363 363 362 362 362 362 361 360 359 359 359 358 358 358 357 357 357 357 356 356 356 355 356 355 354 353 353 352 351 350
360 358 357 361 355 355 355 354 353 351 349 349 348 350 353 357 354 353 352 342 342 340 340 339 336 334 334 335 336 342 352 351 347 346 346 347 347 350 351 351 350 350 351 352 353 353 352 351 351 351 352 351 353 358 360 362 362 363 363 363 363 363 362 361 359 358 357 357 357 359 358 359 357 356 356 356 355 355 355 354 354 353 352 352 351
361 357 358 357 354 354 354 353 352 352 350 351 349 358 353 350 350 345 347 344 341 344 341 335 332 330 330 330 334 334 343 346 343 344 344 346 347 348 350 351 350 351 352 353 352 352 353 352 351 351 351 351 351 351 352 354 358 361 363 364 365 365 363 362 361 359 358 358 356 357 358 358 357 356 357 357 356 355 355 355 355 353 352 352 351
360 359 357 356 355 355 354 352 352 353 353 349 350 348 350 352 348 345 343 345 348 349 339 334 330 335 332 331 325 327 335 334 339 343 343 343 343 344 349 349 350 351 351 352 352 352 353 353 352 351 351 350 350 351 351 355 354 359 359 359 362 364 365 365 363 362 359 358 359 359 359 359 357 356 356 356 356 355 355 355 355 354 354 353 352
360 358 356 355 355 355 354 352 351 354 350 349 349 348 349 350 350 352 344 340 338 339 350 343 338 335 328 328 326 326 322 326 329 335 342 341 340 340 345 346 346 347 348 349 351 352 353 353 353 352 352 351 351 350 350 349 354 359 362 364 363 361 362 364 364 363 363 362 360 360 360 359 359 358 356 355 355 354 355 355 355 355 354 353 352
361 358 356 353 355 354 355 353 351 353 351 348 349 350 350 351 350 350 344 340 340 340 345 344 338 338 335 328 325 325 324 326 330 330 336 336 337 339 342 344 342 343 345 345 347 349 351 352 353 353 352 352 351 350 350 351 352 357 358 362 363 362 362 363 364 364 363 363 362 362 361 360 360 359 358 357 356 355 355 355 355 355 354 354 353
360 359 357 355 355 355 356 354 352 353 354 351 350 350 351 351 353 350 348 344 340 339 339 346 343 349 340 333 331 327 324 327 327 323 331 341 341 343 339 341 340 341 341 343 343 344 350 350 352 353 353 352 352 351 350 350 354 352 351 352 360 361 361 362 363 364 365 363 362 361 362 362 361 360 359 358 357 356 356 356 355 355 354 354 354
361 360 358 358 356 356 357 356 355 354 359 353 352 354 354 354 353 350 349 352 342 339 340 339 336 339 345 344 347 342 333 330 326 327 323 327 333 338 339 339 339 338 339 340 341 341 342 347 349 351 351 352 351 351 351 351 356 357 359 360 359 359 359 359 360 363 365 366 364 362 361 361 361 361 360 359 358 357 357 357 355 355 355 354 354
360 359 359 359 358 356 357 356 355 356 358 356 354 355 357 355 356 353 350 352 344 341 338 339 332 331 349 347 346 343 337 335 332 331 326 324 327 331 337 338 336 337 339 339 340 340 339 340 344 346 347 348 348 349 350 350 350 351 355 357 361 361 359 358 358 361 364 366 366 363 362 362 361 361 360 360 359 358 358 357 356 356 355 355 355
358 359 358 358 362 358 357 355 356 356 362 359 357 357 356 355 352 351 349 350 347 344 341 339 337 339 337 337 337 337 337 336 339 336 332 325 323 326 328 334 334 335 337 338 339 339 340 340 341 345 346 346 345 346 348 348 348 348 354 355 359 362 361 359 358 360 363 364 366 365 363 362 362 362 362 361 361 360 359 358 358 357 357 356 356
355 356 356 357 359 360 358 356 356 358 361 360 358 356 356 355 355 354 351 351 351 350 344 341 345 342 342 337 336 335 333 332 331 329 329 328 325 324 327 329 327 329 335 336 338 339 340 340 340 342 344 344 344 345 345 346 347 348 349 355 357 358 359 359 358 362 362 363 364 365 364 363 363 363 362 362 362 362 361 360 359 359 358 358 357
354 355 355 356 357 360 359 357 357 360 361 359 358 357 356 355 356 354 352 351 351 352 353 350 346 347 345 338 335 334 333 332 329 331 330 328 328 326 328 333 329 328 330 336 341 338 339 339 339 339 340 342 344 345 345 345 351 352 354 355 354 355 356 358 358 360 361 358 361 363 364 365 364 364 364 363 363 362 362 361 361 361 360 360 359
352 353 353 355 357 358 360 358 358 357 357 358 358 356 355 355 354 353 353 353 350 353 351 349 349 346 345 342 338 338 336 334 335 333 331 329 329 326 326 327 332 332 334 340 340 340 338 338 339 340 340 340 342 345 345 347 348 355 356 355 355 355 355 356 357 358 357 356 355 358 361 363 364 364 364 363 363 362 362 362 362 362 361 361 360
350 352 352 354 356 356 357 356 356 357 357 357 356 355 353 353 355 354 353 353 353 352 350 350 350 348 347 346 345 343 341 340 339 337 333 332 330 327 327 331 330 330 331 338 338 339 338 337 338 338 339 340 341 343 344 346 346 351 358 355 354 354 354 354 354 354 354 354 354 355 356 356 357 356 355 355 356 357 358 359 360 361 362 362 361
350 351 353 354 355 357 358 357 357 357 357 356 355 355 354 352 354 353 354 354 353 352 351 352 350 350 349 348 346 345 344 344 342 339 337 334 330 328 328 330 331 330 330 334 335 336 337 339 340 340 340 339 340 340 341 343 346 352 356 355 352 351 351 352 353 352 352 352 352 353 354 355 356 356 356 354 354 355 355 355 356 357 357 358 359
351 351 353 353 354 355 356 356 356 356 357 356 357 354 355 353 354 353 354 354 354 354 352 352 354 352 350 349 351 348 347 346 345 344 341 338 335 332 331 329 328 324 328 328 330 333 336 339 345 344 341 343 341 339 339 340 345 354 357 351 350 351 350 350 351 350 349 349 350 350 351 352 353 353 354 356 356 355 355 354 354 354 355 355 354
351 351 352 353 353 354 356 356 356 356 356 356 355 354 353 352 351 352 352 356 354 353 353 352 353 352 352 350 348 350 350 349 348 346 341 339 338 336 334 329 326 324 322 324 323 328 337 339 341 343 346 344 347 343 347 349 346 353 359 350 349 349 350 349 349 349 347 346 347 348 349 350 351 351 353 354 355 356 355 354 353 353 353 353 353
350 351 350 352 352 353 354 355 355 355 355 355 355 353 352 353 353 351 351 353 354 353 353 353 353 353 351 350 350 350 350 348 348 351 346 341 341 339 336 333 328 327 323 322 320 325 333 341 341 341 344 347 349 349 348 346 350 354 348 347 346 347 348 346 346 346 346 346 345 345 346 347 348 349 350 350 352 353 354 353 352 351 352 351 351
350 352 350 350 351 357 353 354 354 355 356 355 355 354 352 352 352 352 353 353 353 353 354 353 353 352 353 351 349 351 350 348 349 350 347 344 343 342 339 337 335 332 326 326 325 326 330 335 341 341 341 348 351 352 351 352 356 356 350 349 348 348 348 344 343 343 344 344 343 341 342 344 344 344 345 346 347 348 348 348 348 348 349 349 349
350 349 349 349 350 351 352 352 353 353 355 355 355 355 353 352 351 350 350 350 351 351 352 353 353 351 350 349 348 348 350 349 348 348 347 347 344 343 342 341 339 337 332 329 328 331 336 335 337 343 343 345 351 351 352 352 355 356 353 352 352 353 351 351 348 345 344 343 342 341 341 341 339 339 341 342 343 344 345 345 347 348 349 348 347
348 349 349 349 349 349 351 352 352 352 353 355 355 355 354 353 353 352 351 349 349 349 350 352 354 352 350 349 349 350 349 349 349 348 347 348 347 344 344 345 341 339 338 333 333 337 338 340 342 345 348 348 350 350 351 352 355 356 351 352 354 356 355 355 352 349 346 344 343 342 340 338 336 337 340 341 342 343 345 347 347 347 344 341 342
347 347 348 349 349 349 349 351 352 351 351 352 355 355 353 353 352 352 350 350 350 350 349 349 352 351 351 349 349 349 348 348 349 349 348 346 347 346 346 344 343 340 340 337 335 338 340 339 341 343 346 348 349 343 347 351 352 353 355 354 355 355 356 356 356 351 348 346 344 342 341 339 337 337 338 340 342 343 344 343 343 339 337 339 337
346 347 347 349 349 349 348 349 350 351 351 351 353 355 354 353 353 354 353 351 351 350 348 349 349 352 351 348 349 349 347 348 348 349 348 347 346 346 345 346 343 344 343 341 339 335 340 339 340 342 343 347 347 343 346 350 351 353 354 355 358 357 358 357 357 358 350 347 344 342 341 339 336 335 337 337 339 341 341 340 338 333 334 333 332
345 347 347 347 348 348 348 348 349 350 350 351 352 353 354 353 353 353 354 352 351 351 350 350 350 349 349 350 350 349 349 347 348 348 348 347 346 345 346 345 345 345 344 345 341 338 339 341 338 339 338 342 344 349 348 348 351 352 352 355 357 358 358 357 357 358 352 347 344 342 340 339 337 337 337 338 338 336 336 332 330 329 329 328 327
341 345 346 346 346 346 347 347 348 349 349 350 351 352 353 353 353 353 353 353 352 352 352 352 351 350 350 349 350 350 348 348 348 348 347 347 347 346 344 343 343 346 345 345 345 344 338 340 340 341 341 341 343 344 348 351 351 353 353 354 355 355 356 357 357 358 355 346 344 342 342 342 341 340 338 335 333 331 329 328 328 327 325 326 325
338 340 344 345 344 343 344 345 346 347 349 350 350 351 353 354 354 353 353 353 352 352 352 352 356 351 350 350 350 350 348 349 349 348 349 346 348 346 346 345 344 346 346 345 346 344 343 343 342 338 337 339 342 344 345 349 350 349 349 350 353 353 354 355 356 358 352 349 350 349 346 345 344 342 338 334 331 329 328 328 326 324 323 321 319
338 338 338 341 344 343 343 343 344 346 348 349 350 351 352 353 354 354 354 353 353 352 352 352 352 352 351 351 351 350 349 349 349 349 348 347 347 347 346 346 345 344 343 344 343 343 343 344 343 343 339 345 344 343 344 346 348 349 350 351 350 349 347 352 355 358 360 360 361 361 354 351 347 342 336 334 331 329 328 327 327 324 322 320 317
339 338 338 338 341 342 343 344 344 344 345 348 350 350 351 352 353 353 353 353 353 353 353 353 353 352 352 352 351 351 350 350 349 349 348 347 348 347 348 347 347 343 345 345 344 342 342 342 342 342 344 343 343 345 343 343 345 346 346 345 346 343 345 348 352 355 357 358 356 353 353 352 347 347 332 328 329 329 328 327 326 324 322 319 318
341 341 340 340 340 341 341 343 344 345 345 346 348 350 351 351 351 352 353 353 353 353 353 353 353 353 353 353 353 353 352 351 351 351 349 349 347 347 348 347 347 345 345 345 343 342 342 342 342 343 338 340 341 340 342 343 345 341 341 341 345 346 346 345 349 351 352 354 357 359 354 352 351 348 341 336 333 330 328 329 330 328 324 320 320
339 340 341 342 341 341 341 341 342 345 346 346 347 348 349 350 351 351 352 353 353 352 352 353 352 352 352 353 354 354 355 360 358 357 356 356 350 348 348 346 346 345 345 344 344 341 342 341 343 342 342 343 343 342 344 339 340 343 342 340 342 345 344 346 349 351 352 352 354 355 355 355 353 351 346 343 339 334 332 331 329 328 324 320 321
335 336 336 339 340 341 342 342 341 342 344 346 346 338 341 350 350 351 351 352 352 352 352 351 351 352 352 352 354 361 362 364 357 349 347 349 354 354 351 348 347 346 345 344 343 343 343 342 342 342 341 342 343 341 341 339 340 339 340 339 339 342 343 345 346 347 351 353 352 350 351 354 351 346 343 338 337 335 331 328 325 324 322 321 322
335 335 336 334 335 337 339 341 342 343 343 344 337 332 333 337 348 350 350 350 351 351 351 351 350 351 352 352 352 357 361 365 361 352 346 344 344 346 349 356 357 350 346 344 344 343 341 342 343 341 341 343 344 343 342 345 340 341 341 337 340 339 337 337 341 347 351 354 350 347 347 348 344 339 339 337 336 332 330 327 325 324 322 322 322
336 336 335 335 335 335 336 338 339 341 343 339 331 330 331 331 338 351 350 350 351 350 351 351 351 351 350 351 352 353 353 353 354 356 353 348 341 341 341 342 345 349 351 350 348 345 341 343 343 344 343 344 345 343 343 337 340 337 338 337 337 338 338 337 335 340 348 353 350 345 342 342 339 335 334 336 336 333 329 327 325 322 321 321 321
337 336 335 335 335 336 336 336 337 340 341 335 330 328 329 330 330 341 350 350 349 350 350 351 351 350 350 350 350 351 352 360 360 356 354 354 346 338 338 340 342 341 337 337 341 350 348 345 344 345 344 344 343 344 341 339 336 338 337 336 336 338 340 340 341 342 349 350 345 340 338 340 334 332 331 333 334 333 331 327 325 323 321 320 320
338 337 337 336 336 336 337 337 338 339 341 335 328 327 327 327 329 333 348 349 350 350 350 350 351 350 350 349 349 349 350 351 351 352 353 352 352 351 349 348 348 350 345 338 337 339 343 348 347 346 348 345 346 346 347 341 340 342 340 340 338 338 340 342 345 347 349 346 343 341 337 334 335 330 329 329 333 331 329 326 325 323 320 319 319
338 337 337 337 337 338 338 339 339 339 342 333 327 324 324 324 327 330 345 349 350 349 349 350 350 351 351 351 350 349 349 349 350 352 350 350 350 350 349 349 349 349 349 349 348 346 346 346 348 350 351 350 348 348 348 345 346 346 345 345 344 343 345 346 346 346 347 343 343 342 335 333 332 328 328 329 331 327 328 327 325 323 320 319 319
341 340 339 339 339 339 340 340 340 340 342 330 326 324 323 322 325 336 343 347 348 349 349 349 349 350 351 350 350 350 350 349 352 342 349 352 349 348 347 347 347 347 348 351 340 343 350 349 349 350 352 353 346 350 351 349 346 345 349 348 345 343 342 340 344 342 343 345 342 338 334 332 331 328 326 327 327 324 325 326 327 323 320 319 319
341 341 340 340 341 341 341 342 341 342 343 335 325 322 321 321 325 338 342 345 347 348 349 349 349 350 350 351 350 350 350 350 346 335 334 351 349 348 347 347 347 347 348 350 340 332 332 331 332 335 335 334 333 331 330 330 340 343 343 341 344 344 341 338 339 337 341 342 340 340 334 330 329 325 326 324 325 323 324 325 325 323 320 318 317
343 343 342 342 342 343 342 343 344 343 343 338 324 321 320 320 328 339 342 344 345 347 348 349 350 350 351 359 359 351 350 350 338 332 331 341 346 347 347 346 346 345 347 349 350 348 330 327 328 330 331 332 332 331 331 329 329 341 345 343 346 341 342 339 339 338 340 339 340 339 329 327 327 323 323 321 321 323 323 323 325 321 320 318 315
347 346 346 344 344 344 344 345 344 344 345 340 324 321 319 318 327 341 344 344 344 346 347 348 349 350 350 355 356 353 349 346 333 330 328 336 345 346 346 346 344 344 346 347 346 347 346 345 347 343 343 342 342 342 344 338 336 342 344 347 347 344 343 342 341 339 341 338 340 338 328 324 323 323 320 314 313 315 319 324 325 322 319 319 318
Wind_Speed
3 2 2 1 0 0 1 0 0 0 0 0 0 2 2 2 2 2 1 1 1 2 1 1 2 3 3 3 4 4 4 3 3 3 2 2 2 3 7 6 5 5 4 4 4 4 5 5 4 4 4 3 2 3 3 3 3 3 3 3 3 3 2 2 2 3 4 4 4 5 6 7 7 7 8 8 7 8 7 8 8 8 8 8 7
3 2 3 2 1 0 0 1 1 1 0 1 2 2 4 2 2 2 2 2 2 2 1 2 1 2 4 4 4 5 4 4 4 4 3 2 2 2 7 6 6 6 5 5 5 5 5 6 6 5 5 4 3 4 5 4 4 4 4 3 3 4 3 3 3 5 6 6 6 6 7 7 7 9 9 8 9 9 8 8 7 7 7 7 7
3 3 2 2 2 1 1 1 1 1 0 2 2 3 3 3 3 2 2 2 3 2 2 2 1 2 3 4 4 4 4 4 3 3 3 3 2 2 3 8 7 7 6 6 6 6 6 6 6 5 5 5 5 5 5 5 5 5 4 4 4 5 5 4 4 6 6 7 8 8 9 9 10 8 9 9 8 8 8 8 6 6 6 7 6
3 2 2 2 2 2 1 1 3 3 1 2 2 2 3 3 3 2 3 2 1 1 2 3 2 3 3 3 3 4 4 4 4 4 3 2 2 3 3 3 8 7 7 7 7 7 6 6 6 5 5 6 6 6 6 6 6 6 6 5 5 5 5 5 6 7 7 8 8 9 8 8 9 9 9 9 9 8 8 7 6 5 6 5 5
3 4 3 3 2 2 2 2 3 2 2 2 2 3 3 3 3 2 1 0 0 1 0 2 3 3 4 3 4 4 3 4 4 4 4 3 4 4 4 3 3 7 8 7 8 7 7 6 6 6 6 6 6 7 7 7 7 7 6 6 6 6 6 7 7 8 8 9 9 9 10 10 9 9 10 9 8 8 8 7 5 5 5 4 4
4 3 3 3 2 2 3 3 3 2 2 2 3 2 2 2 2 1 1 1 1 1 0 2 2 3 4 3 4 4 4 4 4 4 4 4 4 4 4 4 3 3 3 8 8 8 8 7 7 7 8 8 8 8 8 8 8 7 7 7 7 7 8 8 8 8 9 9 10 10 10 10 10 9 9 8 8 8 7 6 5 5 4 4 3
4 4 4 4 4 4 3 4 2 1 2 3 2 2 2 3 1 1 1 0 1 2 2 3 4 5 5 5 5 4 4 4 4 4 4 3 4 4 4 4 2 3 3 3 5 8 8 9 9 9 9 9 9 9 9 9 9 9 8 8 9 9 9 9 9 10 10 10 10 10 10 10 10 9 9 8 8 7 7 6 5 5 5 5 4
5 4 4 4 4 4 4 2 2 2 3 2 1 2 2 2 2 1 1 1 2 2 2 2 3 4 4 5 4 4 5 4 4 4 4 4 4 4 4 4 4 4 4 4 4 4 9 10 10 10 10 10 10 10 10 10 10 10 10 10 11 11 10 10 10 10 11 11 10 10 10 10 10 9 9 8 8 8 7 6 6 6 6 5 4
5 5 5 4 4 4 3 3 2 3 2 2 1 3 2 2 2 0 0 1 1 2 3 2 3 3 4 5 5 5 5 5 5 4 4 5 5 4 4 5 4 7 5 4 4 4 6 9 10 12 12 11 11 11 11 11 11 11 11 11 11 11 10 10 10 10 10 11 10 10 10 10 10 9 9 9 9 8 8 7 7 7 7 7 6
5 5 5 4 4 3 2 3 2 3 2 1 2 2 2 1 2 2 0 1 1 1 1 1 2 3 4 5 4 4 5 5 4 4 5 5 5 5 6 5 5 5 5 4 5 5 5 7 11 12 12 11 10 10 12 12 12 12 12 12 12 12 11 11 11 11 11 11 11 11 11 10 10 9 9 10 9 9 9 8 8 8 8 8 7
5 5 5 4 4 3 3 3 2 3 2 2 1 1 0 0 1 1 1 2 2 1 1 1 2 2 3 4 4 5 5 3 3 5 5 5 5 5 4 5 4 5 5 5 5 5 5 5 4 5 6 12 12 13 12 13 13 13 12 12 12 12 12 12 11 11 11 11 11 11 11 11 10 10 10 11 10 10 9 9 9 9 9 9 9
5 5 5 4 4 4 3 2 2 2 3 2 2 0 0 1 1 1 2 1 0 0 2 3 3 3 1 0 0 2 4 5 5 5 5 4 5 4 5 4 4 5 5 5 5 5 5 4 5 5 5 7 11 12 13 13 13 13 14 14 13 13 13 13 13 12 12 12 12 11 10 11 11 11 11 11 11 10 10 10 10 10 10 10 10
4 5 5 5 4 4 3 3 2 2 3 4 3 2 1 0 1 1 1 2 1 2 2 3 4 1 3 3 1 0 2 3 5 5 5 5 4 5 4 4 4 5 6 4 4 4 5 5 5 5 5 5 6 10 12 13 13 13 14 14 14 14 14 13 13 12 12 12 12 10 10 9 11 11 11 11 11 11 11 10 10 11 11 11 11
5 4 4 5 4 4 4 4 3 3 2 2 1 1 0 1 1 1 1 0 1 1 1 3 1 2 2 1 2 3 1 1 3 4 4 4 4 4 4 5 5 5 5 4 5 5 5 5 5 5 5 5 5 5 5 7 9 12 14 14 14 14 14 14 14 13 13 13 13 12 10 10 11 12 11 11 10 11 11 10 10 11 12 12 12
5 4 4 4 5 5 4 4 3 2 2 2 1 2 0 0 0 0 1 0 1 1 1 1 3 1 1 2 1 2 3 3 1 2 4 5 4 5 5 5 6 5 4 4 5 5 5 5 5 5 5 5 5 5 5 6 7 11 11 11 13 14 14 14 14 13 13 13 13 11 11 10 12 13 12 12 12 12 11 11 10 11 11 11 12
5 4 4 4 4 5 4 4 4 3 3 3 3 3 1 1 0 1 1 0 1 0 0 1 3 5 1 0 1 1 2 3 3 5 2 5 6 6 5 6 5 4 3 6 6 5 6 5 6 6 6 6 5 5 5 5 8 11 12 12 11 12 14 15 15 14 14 14 13 12 11 11 11 12 13 14 13 13 11 11 10 10 10 11 12
5 5 4 5 4 4 4 4 3 3 3 3 3 4 3 2 2 1 1 1 0 0 1 1 1 2 6 2 1 1 2 3 1 4 2 1 4 5 5 6 5 5 5 7 5 5 5 5 6 5 6 6 6 5 5 5 6 5 7 10 12 12 13 13 14 14 14 14 14 13 12 11 11 13 15 14 14 14 12 12 11 11 11 11 12
5 5 4 4 5 4 4 4 4 4 4 4 3 1 2 3 3 3 1 1 1 1 1 0 1 1 1 1 4 1 2 1 1 2 4 2 3 2 4 5 5 5 5 6 7 6 5 7 6 7 7 6 6 5 5 5 5 5 5 7 12 12 12 12 13 14 14 14 14 14 13 12 12 14 13 14 14 14 14 12 12 12 12 12 12
5 5 4 4 4 4 4 4 4 4 3 3 3 4 3 3 1 2 3 1 1 0 2 2 2 0 0 1 0 1 3 3 2 1 2 3 2 3 4 3 4 4 6 7 7 6 6 6 7 7 7 6 5 5 5 6 7 8 10 11 11 11 12 13 13 13 14 14 14 14 14 14 13 13 14 14 15 15 15 14 13 13 13 13 13
6 5 5 5 4 5 4 4 4 4 3 4 4 4 3 2 2 2 1 2 2 2 3 1 2 2 1 2 1 2 1 1 3 3 2 0 3 3 3 3 3 5 6 7 6 7 7 6 7 7 7 6 5 5 6 6 6 6 7 10 12 12 12 12 13 13 14 15 15 15 15 15 15 14 13 15 16 16 15 15 14 14 15 16 16
5 6 5 5 5 5 5 4 4 4 4 4 4 3 3 3 3 2 3 2 3 2 2 3 2 2 0 1 1 1 0 1 1 1 1 0 4 2 4 4 1 4 5 4 5 5 6 7 6 6 6 6 5 5 5 5 6 6 7 11 11 11 12 12 13 13 13 14 15 15 15 16 16 16 16 16 16 16 16 16 16 16 16 17 17
5 5 5 5 5 5 5 5 6 5 4 5 4 3 3 3 4 4 3 3 3 3 3 2 3 2 1 0 1 0 1 0 1 1 2 0 2 3 3 3 4 5 2 5 6 6 6 6 6 6 6 6 5 5 5 6 6 6 8 11 12 13 13 13 13 13 14 14 14 15 16 16 16 16 16 16 17 17 17 17 17 17 17 18 18
5 5 6 6 5 5 5 6 5 5 4 4 5 5 4 4 4 3 3 4 4 4 3 2 2 2 2 2 3 2 3 3 2 1 1 1 0 3 4 2 3 4 3 3 5 6 5 5 6 6 6 6 6 5 6 6 6 7 11 12 12 12 13 13 13 14 15 15 15 14 15 16 17 17 17 17 17 17 17 17 17 18 18 18 17
5 5 6 6 6 5 5 5 6 5 5 5 5 4 4 3 3 4 4 4 3 3 3 3 3 2 1 2 3 2 2 2 1 2 1 2 2 3 3 3 1 3 6 6 3 4 5 6 6 6 6 5 6 5 5 6 7 11 9 12 13 13 13 13 14 14 15 16 15 15 15 15 16 16 17 17 17 17 17 18 18 18 19 19 18
6 7 7 7 6 6 6 6 6 6 5 4 4 4 4 4 4 4 4 4 5 4 4 4 3 3 3 1 2 2 5 2 2 1 1 3 3 1 1 0 1 3 2 1 2 4 3 5 5 5 5 5 6 5 5 5 6 7 8 8 12 13 13 14 14 15 15 16 16 16 16 16 16 16 16 16 16 16 17 17 18 19 19 19 18
8 8 7 7 6 6 7 7 6 6 5 5 4 4 4 5 4 5 5 5 3 4 4 4 3 3 1 1 2 4 4 2 3 2 2 2 2 3 2 1 0 2 3 3 2 2 2 2 2 3 3 4 5 5 5 5 5 8 8 6 8 11 12 13 13 14 15 16 16 16 16 16 16 16 17 17 17 16 17 17 17 18 20 20 19
8 7 6 6 7 6 6 7 6 6 5 4 4 3 3 3 4 5 5 4 4 4 4 4 4 4 3 3 3 2 4 3 2 4 3 5 4 3 3 3 3 3 3 2 3 2 4 4 2 1 2 3 3 3 4 4 6 8 7 5 5 9 11 12 12 13 14 15 15 16 16 16 16 16 17 16 17 17 17 17 17 17 16 18 18
6 5 6 6 6 6 6 6 6 5 5 5 4 4 3 4 4 4 5 3 4 4 4 3 4 4 4 1 1 4 3 3 3 4 4 4 4 4 3 2 1 4 4 3 3 2 1 1 2 2 3 3 3 2 3 4 4 7 7 4 5 5 9 11 12 12 13 14 14 14 15 15 16 16 17 17 16 16 17 17 16 17 18 18 18
6 5 6 5 6 6 6 6 5 5 5 5 4 4 3 3 4 4 5 4 3 5 4 4 4 4 3 3 3 4 4 2 2 4 3 2 3 4 4 4 4 1 2 2 3 2 2 1 0 2 2 3 4 2 3 2 4 3 3 3 4 4 7 10 11 11 12 12 13 13 13 13 14 15 15 16 16 16 15 16 16 16 17 17 17
7 6 5 6 5 6 6 6 5 5 6 5 4 4 3 4 4 5 5 4 4 4 4 4 5 4 3 3 3 4 3 1 4 3 2 2 3 4 4 3 5 3 3 1 4 3 3 2 2 2 3 5 4 6 4 5 6 4 3 3 4 4 8 10 10 10 11 11 11 11 11 12 12 13 13 14 14 14 15 15 16 15 15 15 15
6 6 6 6 6 6 6 6 5 6 5 5 5 4 4 4 4 4 3 3 4 5 4 4 5 3 4 4 3 4 3 3 3 4 2 2 4 3 2 3 3 3 4 3 0 4 3 3 3 3 3 4 5 5 6 5 6 5 4 4 4 7 9 7 9 9 10 10 11 11 11 12 12 12 12 12 11 12 13 14 13 13 13 13 13
7 7 6 7 7 7 6 6 6 6 6 6 5 5 5 5 5 5 4 3 3 4 4 3 4 4 4 5 5 4 4 3 3 2 3 3 3 3 3 4 4 3 4 4 4 7 3 4 5 6 5 4 5 6 6 5 5 6 4 5 5 7 5 6 9 11 11 11 11 11 11 11 11 11 11 11 11 11 11 11 11 12 12 12 12
7 7 7 8 8 8 7 7 7 7 7 7 6 5 5 5 5 4 3 4 4 4 3 4 3 3 4 5 6 5 3 3 4 3 2 3 2 3 3 3 3 2 3 3 3 7 5 3 4 4 3 3 4 1 5 6 6 6 5 4 5 5 6 5 6 9 11 11 11 10 10 10 10 10 9 9 9 9 10 10 11 11 12 12 12
8 9 9 8 7 8 8 8 8 8 7 7 7 6 6 6 6 5 5 5 5 5 4 5 5 5 4 4 6 6 3 3 4 4 3 3 2 3 3 4 3 4 3 3 4 2 8 3 4 3 4 1 3 1 3 6 7 7 8 8 7 5 6 6 6 6 10 10 10 11 11 10 9 8 8 8 10 11 11 11 12 13 14 14 15
8 9 9 9 8 8 8 8 8 7 8 7 7 7 7 7 8 6 6 6 6 6 6 7 6 4 4 5 6 5 3 3 4 4 3 4 3 3 4 2 3 3 3 4 3 4 6 8 2 3 2 1 2 5 4 3 4 4 6 7 6 7 6 5 5 5 8 10 11 11 11 10 9 8 10 13 11 11 13 14 15 16 17 17 17
9 8 8 9 8 8 9 8 7 7 7 7 7 7 9 9 8 8 7 6 6 7 7 7 6 5 6 5 7 5 4 4 4 4 4 3 4 3 4 3 3 4 3 3 4 5 3 6 4 3 3 3 4 3 4 4 4 6 4 5 5 5 6 6 4 4 6 10 10 10 10 10 10 12 14 12 12 14 15 15 16 16 15 15 14
9 8 8 7 8 8 9 9 9 8 8 8 8 8 8 8 9 8 7 7 7 7 7 7 6 6 6 7 7 5 4 5 6 5 4 4 4 3 4 4 4 4 3 3 4 3 5 7 6 3 2 2 3 3 2 4 5 4 4 4 5 5 6 5 4 3 5 8 8 9 9 9 11 13 14 13 14 15 15 15 15 14 13 12 12
9 8 8 7 8 9 9 9 9 9 8 8 9 9 9 8 7 7 7 6 7 7 7 7 7 6 7 7 7 5 5 6 7 6 4 5 4 4 4 5 4 3 3 4 3 3 4 6 5 7 3 4 4 3 2 1 4 5 6 5 4 3 3 6 5 3 3 3 4 5 5 7 10 12 14 13 13 14 14 14 13 12 12 11 11
10 9 9 8 8 8 9 9 9 9 9 8 8 9 9 8 8 8 7 7 7 7 6 7 6 6 7 7 7 6 6 7 7 7 6 5 5 5 5 5 4 3 4 5 4 4 4 5 5 4 6 3 2 5 2 1 3 2 3 6 5 1 1 4 7 5 3 3 3 2 4 6 7 7 12 13 14 13 13 13 12 11 11 11 11
11 10 10 10 9 8 9 9 9 8 8 8 8 8 8 8 8 8 8 8 8 7 7 7 7 7 7 7 7 7 7 7 8 7 5 6 4 5 5 4 4 4 5 5 4 4 5 4 5 7 3 4 4 2 2 3 4 4 1 0 6 7 5 2 3 5 4 3 5 5 5 6 6 8 10 11 13 12 11 10 11 10 10 10 11
9 10 10 9 9 9 8 8 8 8 8 9 8 8 9 9 8 9 9 9 9 9 8 8 7 7 7 7 7 8 8 11 12 10 9 7 5 6 6 4 4 4 5 5 5 5 5 5 7 4 5 7 6 5 6 3 3 5 4 2 4 6 5 5 5 3 2 2 3 4 5 4 4 5 5 6 7 7 9 8 7 8 11 11 11
10 9 9 9 10 10 10 10 9 8 8 8 10 15 13 10 9 9 9 9 9 8 8 8 7 7 8 7 8 12 13 14 13 13 13 12 11 8 7 5 6 5 5 5 6 5 5 6 7 6 7 8 7 4 3 3 3 2 4 3 4 6 5 5 3 1 2 2 4 5 4 4 3 5 5 5 5 6 4 5 5 7 10 11 11
11 10 10 11 11 11 11 10 10 10 9 9 14 15 16 17 12 9 10 9 9 9 9 8 9 9 8 8 7 9 10 11 11 14 13 14 13 13 13 11 8 7 6 6 6 5 5 6 6 4 6 8 8 4 4 5 2 3 4 3 4 3 2 3 7 6 1 4 3 3 3 4 3 5 5 4 4 5 4 5 6 10 10 10 11
11 10 11 12 12 11 10 11 11 11 10 13 15 16 16 17 15 11 9 9 8 9 9 9 9 8 8 7 7 6 6 8 8 7 9 12 13 14 14 14 13 12 10 7 7 6 4 6 7 7 5 7 8 5 5 3 4 3 3 3 3 3 3 2 2 3 4 3 4 3 1 2 2 4 5 3 3 4 4 5 8 8 9 10 9
10 10 13 12 12 12 11 12 12 12 11 14 15 17 17 18 19 15 9 9 9 9 9 10 9 9 8 7 7 6 6 11 9 7 7 7 9 13 13 13 12 12 12 12 11 8 5 5 7 8 7 5 6 6 3 2 2 3 3 3 2 3 3 4 4 4 4 1 2 1 1 1 2 2 5 2 2 2 3 5 8 7 7 9 9
12 13 12 13 12 12 12 13 12 11 11 13 16 17 18 19 19 16 11 10 10 10 10 10 9 9 8 8 8 7 7 7 6 7 6 7 7 5 5 5 6 9 11 12 14 14 11 8 7 10 10 5 9 8 5 3 2 4 4 6 3 3 4 6 4 3 3 1 1 1 2 1 2 2 3 1 1 2 3 4 8 7 7 8 11
13 13 13 13 12 12 12 12 11 12 12 16 16 18 18 19 19 15 11 10 9 9 9 9 9 9 9 9 9 9 9 8 8 8 7 8 6 6 6 6 6 7 6 6 7 7 7 8 10 11 12 8 9 9 6 3 5 5 5 6 5 4 4 4 3 4 3 0 1 2 2 1 1 2 1 1 0 2 2 3 6 7 7 7 10
12 11 11 12 13 14 13 13 12 13 13 17 17 18 19 18 18 11 10 10 10 10 9 9 9 9 9 9 9 10 10 10 12 14 12 8 6 6 7 7 7 6 7 9 10 9 8 8 9 10 10 10 9 8 7 5 4 4 4 3 1 1 2 4 6 2 2 1 1 3 1 1 0 0 1 0 0 3 2 3 4 6 7 8 9
12 13 13 13 12 12 13 12 14 14 13 15 18 19 18 19 13 9 9 9 10 10 11 10 9 9 9 10 9 9 10 10 13 14 14 11 7 8 8 8 8 6 9 8 9 12 13 13 14 15 16 15 13 12 12 10 6 4 3 2 7 4 4 5 4 2 2 2 1 2 3 0 1 0 2 1 1 0 1 2 2 4 7 8 8
13 13 12 12 12 13 14 14 15 14 14 15 18 18 19 18 16 11 9 9 10 10 10 10 9 9 10 15 13 11 11 11 14 15 14 10 8 9 9 9 8 9 10 9 5 6 11 13 14 15 14 14 13 12 12 12 10 6 6 8 6 4 6 5 5 3 1 2 3 3 3 2 2 1 1 2 1 2 0 1 1 3 4 5 7
13 12 11 12 12 12 13 15 17 17 14 14 17 18 19 18 16 10 10 9 10 10 10 10 9 9 9 11 16 15 12 13 16 14 13 11 8 9 9 8 9 10 12 8 5 6 5 4 6 6 7 10 10 8 9 13 11 9 8 9 5 5 6 6 5 2 3 3 3 4 3 1 0 1 1 3 1 3 1 2 3 3 4 4 5
Wind_Direction
141 148 111 124 87 50 73 129 131 40 80 30 330 307 300 302 304 296 282 290 277 284 261 224 145 193 158 159 161 147 148 152 158 156 161 191 196 194 184 192 201 209 220 230 224 221 224 229 230 231 236 235 226 237 235 232 245 249 242 233 246 264 257 268 279 295 295 299 312 314 319 321 324 322 326 335 339 337 345 346 353 2 17 21 32
154 150 155 177 171 101 137 305 296 329 80 272 269 254 266 297 295 292 306 289 287 268 232 262 175 160 164 164 171 162 158 159 164 165 174 189 201 222 186 197 198 208 216 226 236 237 231 229 236 237 242 241 238 239 246 243 242 246 244 240 245 261 263 275 274 283 294 300 302 309 306 314 320 323 326 334 338 334 340 342 353 358 13 25 32
159 162 174 168 175 178 232 310 293 289 269 248 271 247 259 254 263 267 257 251 251 265 220 213 181 156 165 172 169 152 156 153 157 167 175 185 208 236 222 196 202 206 212 220 227 234 237 235 237 238 244 240 240 242 244 245 242 245 251 246 254 258 264 270 280 286 288 298 302 305 323 325 312 317 321 326 323 330 329 336 349 357 9 23 25
166 169 178 171 190 212 261 281 261 263 244 260 291 279 260 265 265 255 246 231 308 277 244 222 173 188 159 181 163 158 158 161 172 176 176 182 200 226 256 220 207 207 212 218 224 230 237 235 239 243 248 248 245 246 250 247 249 250 255 259 257 268 273 277 281 287 298 301 301 306 299 305 310 315 316 318 320 320 328 330 341 351 9 17 8
186 181 179 174 185 213 245 255 267 276 288 277 287 284 287 292 286 302 302 91 113 286 232 223 174 183 167 178 168 167 159 166 176 171 181 184 199 217 235 240 238 218 215 222 225 228 232 237 240 240 242 245 251 251 250 248 253 254 257 264 267 276 283 282 280 287 295 297 299 299 309 311 314 309 311 314 315 319 323 327 333 342 354 6 357
184 188 174 163 176 202 219 239 248 257 285 281 274 286 278 272 278 14 21 103 135 272 273 198 189 155 174 172 178 176 165 179 181 182 179 189 199 212 222 231 234 247 243 229 232 236 234 234 237 239 241 244 245 248 251 256 257 259 264 267 274 272 273 275 283 287 293 297 300 305 305 308 308 309 305 309 316 313 314 317 321 323 337 331 337
193 181 180 170 176 197 210 225 225 245 260 262 222 265 252 263 322 353 310 177 209 188 194 197 164 173 177 172 188 171 174 185 179 179 187 189 194 216 224 231 241 245 243 246 246 239 239 239 237 239 240 244 246 250 254 256 260 264 266 266 265 263 272 286 290 293 294 299 299 303 304 303 305 311 313 313 312 304 303 310 308 315 312 313 308
188 180 180 182 182 195 218 220 223 220 235 234 199 239 254 265 246 187 350 326 0 334 43 113 172 171 168 178 185 176 182 180 189 192 186 179 202 215 222 224 227 239 242 238 245 254 247 244 242 243 245 246 248 252 257 260 262 264 265 267 270 277 277 279 285 289 294 296 300 299 302 302 304 305 306 305 304 303 300 298 299 297 300 296 293
184 181 177 180 185 198 215 211 207 195 201 221 233 246 259 280 301 292 120 275 24 342 19 64 139 169 167 186 186 178 186 193 197 191 172 194 202 214 219 225 227 231 235 230 234 240 249 250 247 245 247 249 251 255 259 261 263 265 266 269 274 278 281 281 281 284 286 286 290 295 293 296 300 298 299 302 299 293 291 291 289 288 287 288 284
178 178 175 178 185 192 203 206 184 168 176 199 231 260 261 245 275 322 303 197 322 5 10 25 105 140 177 190 186 184 198 200 200 190 184 204 208 211 216 220 223 228 231 233 233 239 247 251 251 250 250 251 253 255 258 261 264 266 267 268 271 273 275 277 277 279 278 278 280 283 287 289 291 294 293 291 292 289 284 283 283 281 282 281 277
170 171 164 175 173 186 189 198 172 158 163 181 251 264 352 5 232 294 290 230 211 206 180 182 77 112 157 193 178 198 209 211 195 195 201 210 211 215 205 221 223 232 232 233 234 237 244 247 253 256 254 254 255 255 256 259 262 264 265 266 269 270 272 272 271 272 275 277 277 280 285 288 289 287 288 288 286 285 287 286 284 281 282 283 284
164 167 168 168 173 182 182 176 172 150 166 193 235 242 102 5 6 11 341 317 219 202 120 111 56 49 46 8 242 207 205 200 197 211 209 214 221 206 214 210 219 237 234 232 232 236 242 250 251 251 256 258 257 256 259 261 262 263 264 265 264 265 267 270 272 272 273 275 276 277 279 281 284 286 285 287 287 284 278 277 280 283 285 282 281
159 161 169 170 172 173 168 170 159 166 186 215 213 213 224 242 289 327 21 14 339 25 104 120 112 46 3 0 338 274 176 182 212 214 215 221 219 219 219 206 222 231 239 235 234 239 242 246 247 249 251 254 261 262 261 262 262 262 263 262 263 263 265 267 271 274 275 277 278 273 269 269 272 273 278 279 280 282 283 282 279 279 280 281 281
159 162 162 161 163 173 182 176 167 188 214 228 232 231 18 16 38 5 8 1 293 65 120 93 32 148 145 324 334 326 303 120 176 228 227 229 223 232 218 219 222 228 238 237 238 235 240 240 243 245 249 250 253 257 263 266 265 262 262 263 264 265 266 267 269 271 272 275 277 277 273 265 266 272 273 271 270 274 275 271 267 270 274 278 280
161 164 162 169 173 172 189 178 176 183 191 230 241 242 273 17 92 145 317 326 331 351 133 80 153 120 105 86 332 9 325 356 318 212 208 213 219 232 231 231 233 225 225 235 243 240 240 236 239 240 244 244 247 249 252 254 254 258 259 261 264 265 265 265 264 265 268 269 271 273 274 273 272 275 274 274 272 270 269 269 267 265 266 266 270
163 168 172 175 176 184 177 175 181 188 177 197 217 227 254 276 195 217 140 1 0 334 324 165 138 129 60 69 230 115 348 303 293 292 200 208 210 224 223 232 234 234 210 231 237 237 244 240 241 242 242 242 244 245 250 251 259 264 265 263 256 252 255 258 260 262 263 265 267 266 263 262 262 265 269 271 271 269 267 267 264 259 257 260 263
166 173 175 181 184 181 182 179 175 189 173 200 216 214 214 225 205 202 176 148 157 326 318 96 179 139 137 88 24 16 224 243 348 291 340 245 231 228 230 228 228 220 220 238 239 236 241 245 245 243 244 244 243 242 245 253 259 261 266 266 264 258 253 252 258 261 261 262 264 264 262 258 256 261 267 264 264 265 263 262 265 262 258 256 257
172 176 182 176 184 190 186 172 184 185 195 208 223 239 242 234 220 207 209 206 159 88 325 326 169 168 147 159 167 176 211 253 87 286 313 241 289 253 230 239 227 217 224 237 238 240 227 243 242 243 242 242 242 242 240 246 248 252 251 258 261 261 260 255 251 254 257 260 262 262 261 259 257 260 260 260 261 263 263 260 259 260 259 257 255
182 181 181 186 185 188 189 191 190 193 200 200 224 227 229 229 199 185 223 152 105 141 229 265 347 41 206 260 258 147 146 124 228 85 345 316 332 296 279 233 229 222 226 230 233 238 239 233 243 245 246 241 239 239 242 245 246 248 249 252 252 254 260 260 256 252 254 258 260 260 259 258 256 254 254 254 257 259 259 257 255 254 256 256 253
184 188 185 186 187 192 192 193 197 206 201 207 222 232 241 260 216 222 184 174 157 163 224 193 151 263 331 295 345 99 173 120 151 163 172 296 313 319 272 290 270 237 230 236 233 231 239 235 239 247 248 246 235 235 238 243 246 250 257 254 254 257 259 260 259 255 252 255 257 257 258 258 257 254 252 252 255 256 257 256 254 252 251 253 254
190 190 192 191 193 192 190 195 204 212 210 217 231 233 228 241 250 230 218 205 194 191 137 197 163 208 30 307 56 50 7 43 139 106 126 118 287 255 296 322 320 259 239 246 250 242 240 239 239 245 250 253 240 238 238 242 244 243 250 253 250 254 258 257 256 254 250 251 253 255 256 257 257 258 257 255 253 253 253 254 253 252 251 251 252
198 197 196 200 198 191 190 197 208 209 208 214 224 229 236 237 235 225 212 212 220 193 192 189 199 222 206 184 155 349 32 14 61 74 31 85 224 289 270 316 328 298 289 248 240 238 237 245 252 254 254 255 249 240 238 241 240 244 247 248 253 257 258 259 257 252 252 253 251 251 254 256 256 257 257 257 256 255 253 253 252 252 251 251 251
192 201 200 199 201 194 192 202 208 208 208 213 219 218 224 222 229 228 218 205 209 211 234 209 190 222 207 180 209 185 195 202 224 206 182 195 16 301 309 238 217 302 294 273 270 264 250 247 248 253 251 256 255 246 243 243 243 240 245 252 253 256 258 259 258 257 256 255 254 252 253 255 256 257 256 257 257 256 255 254 253 252 252 252 251
196 200 206 201 197 198 199 198 205 207 214 213 218 214 219 217 216 210 224 220 209 203 214 231 225 229 233 185 223 225 228 219 198 154 156 210 180 256 268 299 305 230 279 312 257 236 256 248 246 251 257 260 262 247 247 249 251 247 247 255 256 257 258 259 260 259 258 258 257 256 255 256 256 257 258 258 258 260 259 257 255 256 256 254 248
203 204 210 200 194 195 197 199 208 209 214 211 221 208 209 209 212 211 219 218 209 203 206 226 214 218 246 199 211 221 245 230 145 155 153 147 158 261 277 171 241 296 293 357 323 311 242 249 252 254 261 271 269 263 255 255 258 261 251 264 263 261 261 261 262 262 262 262 262 261 260 259 260 261 262 262 262 262 263 263 262 261 261 260 262
199 208 207 199 199 201 196 201 204 206 209 210 214 208 200 206 208 209 215 223 210 208 217 230 229 234 195 216 222 229 253 204 194 161 183 159 179 203 252 320 62 281 294 347 321 1 314 288 264 244 269 272 276 273 264 255 269 275 280 277 282 279 277 275 272 271 269 268 268 266 266 265 264 264 264 264 264 262 263 264 263 263 265 266 264
201 206 198 198 202 200 201 200 206 208 211 214 214 208 205 205 207 213 218 215 218 214 231 227 242 249 231 220 255 271 266 255 215 236 197 208 188 175 153 288 328 3 339 314 326 247 243 299 316 333 258 275 280 275 260 252 255 263 270 266 259 264 268 270 272 272 272 271 270 270 269 269 269 268 268 267 268 269 270 270 269 269 268 270 270
202 193 203 195 198 201 202 206 206 209 214 219 217 209 203 195 206 209 225 204 210 221 238 234 252 254 252 253 242 272 267 268 244 239 212 199 187 160 131 128 163 304 339 335 346 300 263 306 316 247 249 275 304 269 260 251 261 266 268 263 261 270 270 268 269 270 272 272 273 273 272 271 270 270 271 271 271 272 275 277 279 279 278 277 278
199 196 195 199 198 196 200 206 207 211 216 220 220 213 202 206 203 204 221 220 202 219 231 232 250 260 263 251 236 265 279 265 271 269 243 167 186 178 170 163 158 126 295 325 284 261 306 250 284 298 236 282 322 322 332 289 268 273 269 263 265 264 268 269 272 275 275 275 275 275 274 274 273 274 275 276 278 279 284 287 285 285 286 288 289
196 198 189 194 199 197 197 203 205 210 219 222 221 215 195 212 211 207 214 201 209 222 230 227 247 254 264 269 243 265 273 274 265 265 250 189 169 180 192 165 148 167 184 213 278 221 265 305 211 263 315 324 347 332 339 323 313 315 289 278 275 272 275 280 279 277 277 279 280 280 281 281 281 282 283 287 291 294 292 289 290 293 296 299 299
193 191 188 193 192 199 195 201 202 210 216 223 222 223 199 211 213 215 208 182 201 220 229 219 240 241 258 264 260 257 264 247 248 261 254 191 214 182 187 148 196 153 162 144 348 287 184 266 288 243 259 305 323 321 318 312 308 312 307 298 290 287 290 289 297 305 309 310 309 307 302 299 296 295 296 298 299 295 293 296 302 309 313 316 316
198 193 191 193 194 195 197 197 203 207 211 220 216 220 211 213 211 213 214 188 208 223 235 230 237 235 245 257 259 256 265 284 282 230 238 241 219 210 196 196 209 172 142 156 189 266 230 224 262 290 284 285 312 310 303 305 300 305 289 290 293 307 325 329 326 320 318 315 310 307 308 308 308 308 309 306 301 297 303 314 324 329 333 336 342
194 194 198 199 197 198 195 197 201 203 208 214 215 213 213 221 218 212 205 200 216 233 231 248 249 244 241 247 257 256 253 275 274 282 252 222 202 221 209 190 193 165 160 171 218 272 290 240 254 269 309 331 312 271 313 309 316 319 320 319 330 330 324 329 321 316 314 312 310 314 320 322 320 318 310 301 302 324 337 343 349 355 1 5 2
191 198 201 202 200 197 197 201 203 205 206 210 209 205 213 220 224 211 212 208 220 234 225 239 237 235 239 245 258 260 241 239 268 273 269 269 220 227 227 197 218 216 204 177 230 237 284 312 302 296 293 244 273 287 298 315 318 333 333 329 331 338 328 331 327 316 309 310 327 338 341 341 341 333 328 339 2 3 8 17 24 27 26 25 22
197 199 200 200 198 195 200 201 202 206 207 208 206 205 215 216 220 219 210 207 214 224 229 236 234 229 241 245 252 254 241 241 251 255 265 264 252 238 247 219 231 239 210 208 214 262 276 284 262 306 278 312 241 294 309 296 299 305 311 316 326 324 322 320 317 311 310 328 343 344 345 349 352 353 5 20 24 33 42 43 42 39 34 30 25
197 204 201 198 194 194 200 202 200 205 206 208 206 210 215 215 219 221 213 208 212 217 225 233 233 222 230 244 254 248 246 246 254 254 251 246 248 241 244 242 226 248 233 206 218 231 267 282 292 247 287 312 294 287 282 298 301 310 306 303 314 317 315 317 316 310 318 333 341 343 348 355 2 13 22 37 53 55 53 51 47 43 38 32 25
206 200 204 196 196 196 202 205 204 204 207 205 207 214 219 218 220 221 217 213 213 217 220 226 227 224 228 230 245 249 244 249 263 262 259 259 250 244 249 245 229 244 252 220 234 222 252 271 286 273 276 291 263 298 303 319 323 318 317 312 309 310 306 301 306 302 313 337 344 345 354 358 12 18 36 59 63 60 57 54 50 46 40 34 25
217 211 204 199 200 205 208 210 208 209 207 205 207 213 217 219 222 224 223 220 220 220 222 222 224 220 227 234 239 233 236 237 249 253 252 249 251 247 253 258 248 245 255 260 234 231 233 259 269 302 322 297 325 296 300 0 325 319 317 310 319 323 336 330 327 326 337 347 347 347 354 6 15 29 57 68 66 63 60 57 53 47 40 32 24
222 220 215 209 210 208 213 213 214 211 210 207 209 212 216 215 217 219 223 223 226 225 225 225 224 222 227 234 234 222 226 231 241 245 241 243 238 245 240 248 253 244 258 263 250 243 243 266 282 250 280 280 247 298 311 336 285 251 283 317 321 287 325 329 323 330 348 354 335 333 9 14 37 48 75 69 61 59 62 60 54 48 38 30 26
222 224 221 217 216 212 216 217 219 215 212 211 210 213 214 213 213 219 219 223 227 229 232 229 224 224 227 233 235 227 220 226 230 240 226 236 231 246 245 238 248 241 253 259 263 253 261 264 265 286 282 292 316 276 302 351 338 334 356 263 306 317 328 303 270 304 318 5 350 4 12 16 34 43 73 78 64 55 55 60 53 45 36 31 30
215 221 223 222 220 220 221 219 221 219 218 217 212 209 211 212 212 216 218 220 223 229 233 234 229 227 230 232 236 236 229 228 225 230 229 220 216 234 247 222 235 231 245 251 250 258 262 261 280 278 287 296 285 309 320 318 311 286 292 14 303 301 305 323 302 263 249 341 337 5 17 3 32 47 55 61 54 58 52 52 43 34 32 31 28
212 212 217 220 222 221 221 222 220 220 221 220 217 212 208 209 209 215 216 220 222 226 231 235 237 231 232 232 238 240 237 238 235 233 237 234 227 222 234 216 224 225 234 243 249 244 248 262 264 272 290 283 283 278 266 253 261 294 313 305 299 298 321 316 284 277 358 19 3 5 9 359 48 62 49 65 55 51 58 49 43 39 30 26 24
216 214 213 218 222 223 222 221 221 223 224 222 216 210 211 211 209 212 214 218 218 221 224 228 234 234 235 234 239 246 248 247 247 240 234 235 235 238 243 238 222 212 230 240 249 240 240 252 262 265 258 276 281 267 252 271 245 249 262 264 262 305 354 9 328 319 355 22 356 6 5 358 35 66 54 54 57 58 59 56 46 42 30 24 22
219 217 220 221 222 223 224 225 225 225 227 224 214 210 210 211 211 212 213 218 218 218 221 225 231 234 236 237 238 238 239 241 242 252 247 240 236 238 242 247 248 244 235 225 241 254 230 247 262 255 255 262 277 286 277 250 262 256 253 242 239 259 278 270 232 266 271 16 341 337 319 343 19 72 67 37 39 76 77 70 54 44 29 24 22
216 219 224 223 224 223 224 226 228 227 230 222 213 210 209 210 210 211 215 214 216 218 218 220 225 229 231 235 243 238 243 241 242 244 245 251 239 234 243 252 259 252 251 255 252 246 243 236 249 264 241 251 270 267 215 224 171 269 296 281 244 226 230 249 245 268 291 291 354 354 292 316 14 60 83 19 31 57 74 53 52 43 29 23 20
214 220 221 222 224 223 223 225 229 230 229 226 211 209 210 210 209 205 218 214 216 220 220 219 222 224 225 227 231 243 240 239 239 238 239 242 248 248 244 238 245 257 251 239 243 248 244 241 244 255 259 196 248 257 245 167 197 265 273 278 264 259 259 248 244 248 268 3 214 183 322 313 2 36 77 36 346 49 76 67 49 36 27 21 15
213 217 218 221 223 224 225 223 227 230 231 223 212 208 210 209 209 201 214 216 218 222 222 221 220 222 223 221 223 232 238 236 231 226 229 235 239 243 248 251 245 250 251 248 235 231 229 226 235 243 256 244 241 251 253 202 216 226 219 236 245 238 261 287 285 229 246 334 130 129 247 244 328 27 345 156 353 47 13 50 44 30 23 19 17
216 216 217 218 220 221 221 220 222 229 231 220 211 208 208 208 203 198 209 215 218 222 224 223 221 222 222 220 221 226 233 236 236 228 226 226 226 240 247 252 255 251 249 238 234 231 226 223 226 238 247 250 244 249 251 237 220 219 233 258 286 235 270 292 285 305 195 250 135 155 185 252 174 103 269 274 177 60 7 5 352 23 20 16 15
215 214 216 215 219 220 220 218 221 227 231 221 210 208 207 205 191 201 204 212 219 222 227 224 222 222 222 221 219 225 230 234 236 227 224 219 228 235 242 250 253 258 262 259 228 228 233 234 236 241 249 256 257 257 263 257 226 198 172 244 261 198 203 253 270 274 254 205 267 178 135 179 323 73 290 273 221 170 48 320 321 10 18 15 8
215 217 216 219 217 217 217 219 218 223 229 222 207 208 206 199 187 196 200 204 216 220 228 229 225 225 225 222 219 223 229 234 233 226 220 202 219 231 239 246 254 259 263 258 245 230 220 230 239 245 251 256 255 254 254 256 240 194 191 231 237 157 215 213 243 234 237 212 220 152 90 192 311 356 299 298 339 241 214 270 304 13 18 10 2
217 216 216 220 220 219 219 220 218 220 228 224 206 206 204 196 190 199 197 201 213 220 222 229 226 226 230 229 227 227 227 235 235 228 214 192 213 224 230 236 246 253 254 257 245 255 246 246 252 244 257 250 248 243 249 248 239 208 211 229 227 194 231 232 235 248 285 266 216 154 124 239 120 285 91 354 313 274 288 281 329 2 8 7 359